YAOGAN-7

Last updated on Wed Sep 17 2025 00:02:30 GMT+0000 (Coordinated Universal Time)

1 36110U 09069A 25259.61270711 .00000471 00000+0 73128-4 0 9999 2 36110 98.0393 141.6588 0024252 198.0300 162.0052 14.77534508849229
UTC large
Height (km)
Speed (km/s)
/
Latitude / Longitude
Inclination (degrees)
Orbital Period (minutes)
Azimuth
Elevation
Range (km)
Doppler Factor

Next 0 passes for location: London (51.5072 / 0.1276)

Sorry there are no passes over London.